#timestamp,LO_Frequency,Hit,StdDev 
1620280815.5,286047004.9,N
1620280835.4,286047005.6,N
1620280855.2,286047000.3,N
1620280875.0,286046998.3,N
1620280876.0,286046998.3,N
1620280895.8,286046996.5,N
1620280915.6,286046997.0,N
1620280935.5,286047000.6,N
1620280955.3,286046999.3,N
1620280975.1,286046995.1,N
1620280995.9,286047002.3,N
1620281015.7,286047007.5,N
1620281035.6,286047003.8,N
1620281055.4,286047003.6,N
1620281075.2,286047000.9,N
1620281095.1,286047001.6,N
1620281096.0,286047001.6,N
1620281115.8,286046998.9,N
1620281135.6,286047003.9,N
1620281155.5,286047014.9,Y
1620281175.3,286047011.1,P
1620281195.2,286047010.6,N
1620281215.0,286047008.7,N
1620281215.9,286047008.7,N
1620281235.7,286047012.1,Y
1620281255.6,286046997.0,P
1620281275.4,286046995.1,N
1620281295.3,286047000.7,N
1620281315.1,286046993.2,N
1620281335.8,286046992.8,N
1620281355.7,286046995.6,N
1620281375.5,286046999.3,N
1620281395.4,286047015.5,Y
1620281415.2,286047031.3,P
1620281435.0,286047038.0,N
1620281435.9,286047038.0,N
1620281455.8,286047036.8,N
1620281475.6,286047033.3,N
1620281495.5,286047033.8,N
1620281515.3,286047034.3,N
1620281535.1,286047030.4,N
1620281555.9,286047028.0,N
1620281575.7,286047020.8,N
1620281595.6,286047016.9,N
1620281615.4,286047013.7,N
1620281635.2,286047011.3,N
1620281655.1,286047015.1,N
1620281656.0,286047015.1,N
1620281675.8,286047015.0,N
1620281695.7,286047011.2,N
1620281715.5,286047014.6,N
1620281735.3,286047009.5,N
1620281755.2,286047007.8,N
1620281775.0,286047000.9,N
1620281775.9,286047000.9,N
1620281795.7,286047004.7,N
1620281815.6,286047001.9,N
1620281835.4,286046991.7,N
1620281855.3,286046991.1,N
1620281875.1,286046995.2,N
1620281895.9,286046990.7,N
1620281915.7,286046991.0,N
1620281935.5,286046989.4,N
1620281955.4,286046989.5,N
1620281975.2,286046986.8,N
1620281995.1,286046986.3,N
1620281996.0,286046986.3,N
1620282015.8,286046984.4,N
1620282035.6,286046991.5,N
1620282055.5,286046996.7,N
1620282075.3,286047000.5,N
1620282095.1,286046990.7,N
1620282115.9,286046987.8,N
1620282135.7,286046994.1,N
1620282155.6,286046989.5,N
1620282175.4,286046981.9,N
1620282195.2,286046978.9,N
1620282215.1,286046975.5,N
1620282216.0,286046975.5,N
1620282235.8,286046975.4,N
1620282255.7,286046972.0,N
1620282275.5,286046964.7,Y
1620282295.3,286046982.0,P
1620282315.2,286046985.9,P
1620282335.0,286046986.6,P
1620282335.9,286046986.6,Y
1620282355.8,286046999.0,P
1620282375.6,286046996.9,N
1620282395.4,286046991.2,N
1620282415.3,286046986.6,N
1620282435.1,286046980.1,Y
1620282455.9,286046985.2,P
1620282475.7,286046981.6,P
1620282495.5,286046981.7,P
1620282515.4,286046990.8,N
1620282535.2,286046996.8,N
1620282555.0,286046994.9,N
1620282556.0,286046994.9,N
1620282575.8,286046996.1,N
1620282595.6,286046994.2,N
1620282615.5,286046988.5,N
1620282635.3,286046992.9,N
1620282655.1,286046996.0,N
1620282675.9,286046997.7,N
1620282695.7,286046996.4,N
1620282715.6,286046988.1,N
1620282735.4,286046986.5,N
1620282755.2,286046986.2,N
1620282775.1,286046980.6,Y
1620282776.0,286046980.6,P
1620282795.8,286046998.9,N
1620282815.6,286047007.1,N
1620282835.5,286046996.9,N
1620282855.3,286046994.1,N
1620282875.2,286047002.3,N
1620282895.9,286047003.8,N
1620282915.7,286047004.6,N
1620282935.6,286047003.0,N
1620282955.4,286046998.9,N
1620282975.3,286047007.4,N
1620282995.1,286047006.1,N
1620282996.0,286047006.1,N
1620283015.8,286047009.0,N
1620283035.7,286047004.1,N
1620283055.5,286047003.5,N
1620283075.3,286047016.8,N
1620283095.2,286047016.5,N
1620283115.0,286047012.5,N
1620283115.9,286047012.5,N
1620283135.8,286047008.4,N
1620283155.6,286047007.8,N
1620283175.4,286047004.2,N
1620283195.3,286047001.7,N
1620283215.1,286046998.3,N
1620283235.8,286047015.3,N
1620283255.7,286047028.1,Y
1620283275.5,286047019.0,P
1620283295.4,286047022.7,P
1620283315.2,286047018.1,N
1620283335.0,286047016.0,N
1620283335.9,286047016.0,N
1620283355.8,286047013.8,N
1620283375.6,286047011.6,N
1620283395.5,286047013.6,N
1620283415.3,286047013.5,N
1620283435.1,286047008.6,N
1620283455.9,286047010.5,N
1620283475.7,286047007.1,N
1620283495.5,286047006.1,N
1620283515.4,286046999.0,N
1620283535.2,286046992.4,N
1620283555.1,286046989.3,N
1620283556.0,286046989.3,N
1620283575.8,286046986.9,N
1620283595.6,286046989.7,N
1620283615.5,286046992.2,N
1620283635.3,286046990.4,N
1620283655.2,286046990.0,N
1620283675.9,286046980.8,N
1620283695.7,286046984.7,N
1620283715.6,286046987.3,N
1620283735.4,286046982.9,N
1620283755.2,286046977.9,N
1620283775.1,286046981.9,N
1620283776.0,286046981.9,N
1620283795.8,286046981.0,N
1620283815.7,286046982.2,N
1620283835.5,286046982.5,N
1620283855.3,286046984.8,N
1620283875.2,286046977.6,N
1620283895.0,286046969.7,N
1620283895.9,286046969.7,N
1620283915.7,286046973.4,N
1620283935.6,286046966.7,N
1620283955.4,286046960.5,Y
1620283975.3,286046973.0,P
1620283995.1,286046966.6,P
1620284015.8,286046973.8,N
1620284035.7,286046983.9,N
1620284055.5,286046983.7,N
1620284075.4,286046981.9,N
1620284095.2,286046984.8,N
1620284115.0,286046979.1,Y
1620284115.9,286046979.1,P
1620284135.8,286046996.4,P
1620284155.6,286047000.7,N
1620284175.5,286046995.3,N
1620284195.3,286046992.2,N
1620284215.1,286046991.6,N
1620284235.9,286046987.0,N
1620284255.7,286046993.0,N
1620284275.5,286046993.3,N
1620284295.4,286046998.1,N
1620284315.2,286046998.4,N
1620284335.1,286046996.4,N
1620284336.0,286046996.4,N
1620284355.8,286046988.7,N
1620284375.6,286046993.0,N
1620284395.5,286046988.8,N
